[[{"header":{"parameterUnit":"m.s-1","parameterCategory":1,"la1":30.2991,"la2":30.254,"lo1":-89.0895,"lo2":-89.0444,"dy":0.0017,"dx":0.0017,"nx":28,"ny":28,"refTime":"2024-08-03T03:00:00:Z","depth":0,"parameterNumber":2,"parameterNumberName":"U-component_of_WINDS"},"data":[0,0,0,0,0,0,0,0,0,0,0,0,0,0,0,0,0,0,0,0,0,0,0,0,0,0,0,0,0,0,0,0,0,0,0,0,0,0,0,0,0,0,0,0,0,0,0,0,0,0,0,0,0,0,0,0,0,0,0.1966,0.1968,0,0.2215,0.2218,0.2221,0.2369,0.237,0.2371,0.2371,0.2627,0.2633,0.2639,0,0,0,0,0,0,0,0,0,0,0,0,0,0.1615,0.1621,0.1965,0.1969,0.1972,0.2215,0.2218,0.2222,0.2369,0.237,0.2371,0.2372,0.2625,0.2632,0.2639,0,0,0,0,0,0,0,0,0,0,0,0,0,0.1806,0.1623,0.1965,0.2075,0.2087,0.2214,0.2218,0.2223,0.2369,0.237,0.2371,0.2372,0.2622,0.2631,0.264,0.2678,0,0,0.2669,0.2673,0,0,0,0,0,0,0,0,0.1795,0.1819,0.2055,0.2067,0.2081,0.2262,0.2189,0.2375,0.2369,0.2262,0.2371,0.2372,0.2505,0.2524,0.2568,0.269,0.2701,0.2669,0.2675,0.2679,0.2682,0,0,0,0,0,0,0,0.1782,0.1809,0.2064,0.2059,0.2074,0.2111,0.2139,0.2225,0.2375,0.2271,0.2283,0.231,0.2512,0.2559,0.2575,0.2704,0.2669,0.2677,0.2683,0.2687,0.287,0.2869,0,0,0,0,0,0,0.1751,0.1797,0.2056,0.2072,0.1938,0.2116,0.2148,0.2203,0.2374,0.2401,0.2309,0.2316,0.2543,0.2564,0.2585,0.2641,0.2679,0.2688,0.2693,0.287,0.2869,0.2869,0,0,0,0,0,0,0.1743,0.1773,0.2046,0.1938,0.1975,0.2121,0.2182,0.2207,0.2255,0.2403,0.243,0.233,0.2544,0.2572,0.2654,0.2652,0.2692,0.27,0.2871,0.287,0.2869,0.2752,0,0,0,0,0,0,0.1732,0.1769,0.1785,0.1937,0.198,0.2111,0.2182,0.2212,0.2271,0.2282,0.2429,0.2455,0.2547,0.2639,0.2663,0.2665,0.2708,0.2872,0.2871,0.2869,0.2757,0.2747,0.2739,0,0,0,0,0,0.1719,0.1742,0.1785,0.1816,0.2004,0.2111,0.2136,0.2242,0.227,0.2287,0.2382,0.245,0.2647,0.2646,0.2674,0.2679,0.2873,0.2871,0.2869,0.2761,0.2749,0.2739,0,0,0,0,0,0,0.1587,0.1764,0.1814,0.1887,0.1982,0.2135,0.2161,0.2226,0.2315,0.2323,0.245,0.2482,0.2551,0.2624,0.2619,0.2725,0.2768,0.2771,0.2676,0.2666,0.2657,0.2639,0.2715,0,0,0,0,0,0.1566,0.1639,0.1789,0.1839,0.1884,0.2013,0.2064,0.2137,0.2242,0.2283,0.2384,0.2482,0.2567,0.262,0.2706,0.2767,0.2802,0.2785,0.2775,0.2767,0.277,0.2809,0.2803,0.2863,0.2863,0.2863,0,0,0.1525,0.163,0.1668,0.1815,0.1898,0.197,0.2047,0.212,0.2175,0.2294,0.2379,0.2455,0.2573,0.2645,0.2682,0.2707,0.276,0.2765,0.2758,0.2765,0.2806,0.28,0.2795,0.2862,0.2862,0.2863,0,0,0.1486,0.1572,0.1624,0.1705,0.1829,0.1914,0.1926,0.2069,0.2125,0.2211,0.2302,0.2368,0.2511,0.2592,0.2651,0.264,0.2706,0.2664,0.2618,0.2654,0.2649,0.2646,0.2643,0.2641,0.2666,0.2665,0.2665,0,0.1419,0.1531,0.1642,0.171,0.1771,0.1882,0.1935,0.2008,0.2153,0.2193,0.2219,0.24,0.2488,0.258,0.2577,0.2621,0.2639,0.2649,0.2641,0.2639,0.2637,0.2636,0.2634,0.266,0.266,0.2661,0.2661,0,0.1443,0.1518,0.1545,0.1682,0.1747,0.1806,0.1926,0.1978,0.2044,0.2126,0.2212,0.232,0.243,0.2457,0.2523,0.2559,0.2571,0.2617,0.2663,0.2624,0.2625,0.2625,0.2651,0.2653,0.2655,0.2656,0,0,0.1331,0.1527,0.1535,0.1599,0.1742,0.1804,0.1867,0.1974,0.2017,0.2112,0.217,0.2286,0.233,0.2397,0.2473,0.2504,0.2489,0.2547,0.2552,0.2534,0.2537,0.2502,0.25,0.2533,0.2533,0.2533,0.2527,0,0.1315,0.1436,0.1536,0.162,0.1692,0.1796,0.1852,0.1945,0.2023,0.2095,0.2182,0.2263,0.2314,0.2355,0.239,0.2483,0.2492,0.2485,0.2588,0.2591,0.2558,0.2501,0.2465,0.2454,0.2528,0.2528,0.2528,0,0.1313,0.1404,0.1494,0.163,0.1664,0.1712,0.1818,0.1885,0.1993,0.2048,0.2121,0.22,0.2272,0.2308,0.241,0.2403,0.2451,0.2502,0.2505,0.252,0.2559,0.2516,0.2453,0.2452,0.253,0.253,0.253,0,0.1224,0.1369,0.1442,0.1493,0.1653,0.1684,0.1752,0.1861,0.1919,0.2011,0.2049,0.2148,0.2203,0.2277,0.238,0.2397,0.2471,0.2516,0.2519,0.2516,0.2532,0.253,0.2477,0.2559,0.2559,0.2559,0.2559,0,0.1197,0.1249,0.1405,0.145,0.151,0.1624,0.1681,0.1758,0.1853,0.1915,0.2011,0.2067,0.2198,0.227,0.235,0.2422,0.2446,0.2492,0.2514,0.2485,0.2479,0.252,0.2524,0.2558,0.2558,0.2558,0.2559,0,0.111,0.1216,0.1303,0.1446,0.1483,0.1521,0.1644,0.1692,0.1773,0.185,0.1875,0.2004,0.2093,0.2202,0.2326,0.238,0.2445,0.2476,0.2409,0.2421,0.2419,0.2418,0.2392,0.2395,0.2471,0.247,0.247,0,0.1087,0.1129,0.1276,0.1324,0.1389,0.1465,0.1524,0.1636,0.1694,0.1819,0.1851,0.1947,0.2031,0.2168,0.2273,0.2368,0.2404,0.2388,0.2419,0.2389,0.2406,0.2402,0.2408,0.238,0.2379,0.2378,0.2377,0,0.1035,0.1085,0.1166,0.1265,0.1332,0.1416,0.1504,0.1537,0.1668,0.1727,0.1819,0.1883,0.201,0.2104,0.2213,0.2283,0.2352,0.2366,0.2372,0.2345,0.2304,0.2328,0.2389,0.2367,0.2368,0.2368,0.2369,0.2369,0.0982,0.1023,0.1133,0.122,0.1297,0.1376,0.1428,0.1515,0.1594,0.1705,0.1767,0.1857,0.1963,0.2116,0.2183,0.2255,0.228,0.2289,0.2291,0.2292,0.2284,0.229,0.2275,0.2276,0.2276,0.2276,0.2277,0,0.0936,0.1011,0.1089,0.1208,0.1276,0.1333,0.1433,0.1486,0.1564,0.1657,0.1736,0.1841,0.1933,0.2044,0.2143,0.2179,0.2213,0.2202,0.2201,0.2217,0.2255,0.2241,0.2172,0.2172,0.2172,0.2172,0.2173,0.2173,0.0921,0.0995,0.1057,0.117,0.1246,0.1334,0.1386,0.1459,0.1534,0.1647,0.1723,0.1794,0.1895,0.2002,0.2088,0.2118,0.2151,0.213,0.217,0.2205,0.2214,0.2223,0.221,0.2136,0.2136,0.2126,0.2125,0.2125]},{"header":{"parameterUnit":"m.s-1","parameterCategory":1,"la1":30.2991,"la2":30.254,"lo1":-89.0895,"lo2":-89.0444,"dy":0.0017,"dx":0.0017,"nx":28,"ny":28,"refTime":"2024-08-03T03:00:00:Z","depth":0,"parameterNumber":3,"parameterNumberName":"V-component_of_WINDS"},"data":[0,0,0,0,0,0,0,0,0,0,0,0,0,0,0,0,0,0,0,0,0,0,0,0,0,0,0,0,0,0,0,0,0,0,0,0,0,0,0,0,0,0,0,0,0,0,0,0,0,0,0,0,0,0,0,0,0,0,1.1715,1.1716,0,1.1825,1.1826,1.1827,1.1798,1.1796,1.1794,1.1792,1.1911,1.1916,1.1921,0,0,0,0,0,0,0,0,0,0,0,0,0,1.1479,1.1483,1.1714,1.1716,1.1717,1.1825,1.1826,1.1828,1.1799,1.1796,1.1793,1.1791,1.1909,1.1915,1.1921,0,0,0,0,0,0,0,0,0,0,0,0,0,1.1584,1.1485,1.1714,1.1715,1.1717,1.1824,1.1826,1.1828,1.1799,1.1796,1.1793,1.1789,1.1907,1.1915,1.1922,1.2037,0,0,1.1946,1.195,0,0,0,0,0,0,0,0,1.1578,1.1593,1.1714,1.1715,1.1717,1.1794,1.1787,1.1899,1.18,1.1768,1.1792,1.1788,1.1875,1.1885,1.1914,1.2043,1.2048,1.1947,1.1952,1.1955,1.1957,0,0,0,0,0,0,0,1.1571,1.1588,1.1758,1.1716,1.1718,1.1711,1.1722,1.1808,1.1839,1.1771,1.1769,1.1782,1.1875,1.1906,1.1916,1.205,1.1947,1.1954,1.1959,1.1962,1.2274,1.2277,0,0,0,0,0,0,1.1562,1.1582,1.1755,1.1762,1.1638,1.1717,1.173,1.1773,1.1838,1.1845,1.1785,1.178,1.1894,1.1907,1.192,1.2057,1.1955,1.1962,1.1967,1.227,1.2274,1.2278,0,0,0,0,0,0,1.1557,1.1578,1.175,1.1671,1.1693,1.1725,1.1773,1.1777,1.1808,1.1848,1.1854,1.181,1.1892,1.1909,1.2007,1.2061,1.1966,1.1973,1.2266,1.2271,1.2276,1.2334,0,0,0,0,0,0,1.1551,1.1576,1.1621,1.1673,1.1697,1.1836,1.1777,1.1781,1.1821,1.1816,1.1874,1.1881,1.1891,1.1995,1.2015,1.207,1.1979,1.2261,1.2268,1.2275,1.2327,1.234,1.2351,0,0,0,0,0,1.1542,1.1635,1.1624,1.1645,1.1754,1.1839,1.1853,1.1861,1.1825,1.187,1.1895,1.1879,1.205,1.2006,1.2027,1.2086,1.2258,1.2266,1.2274,1.2322,1.2338,1.2351,0,0,0,0,0,0,1.1594,1.1642,1.163,1.1742,1.1786,1.1834,1.1892,1.1879,1.1936,1.193,1.1938,1.1951,1.2051,1.2077,1.2026,1.2198,1.2149,1.2162,1.2178,1.2193,1.2205,1.2199,1.1986,0,0,0,0,0,1.1617,1.1682,1.1721,1.1816,1.1838,1.186,1.1898,1.1899,1.1946,1.1966,1.1998,1.2046,1.2109,1.2152,1.2214,1.2328,1.234,1.2379,1.2391,1.2401,1.2413,1.2472,1.249,1.2305,1.2305,1.2305,0,0,1.1669,1.1703,1.1744,1.1827,1.1861,1.1928,1.1877,1.1951,1.2,1.1978,1.2072,1.2096,1.2148,1.2254,1.2303,1.228,1.2465,1.2411,1.2418,1.2426,1.2482,1.25,1.2516,1.231,1.2309,1.2308,0,0,1.1797,1.1829,1.191,1.1943,1.1994,1.2006,1.2025,1.2073,1.2088,1.2181,1.2164,1.2222,1.2333,1.237,1.2403,1.2535,1.2522,1.2554,1.262,1.2678,1.2692,1.2705,1.2752,1.2769,1.2565,1.2565,1.2565,0,1.1856,1.1954,1.1954,1.2027,1.2063,1.204,1.2122,1.2154,1.2224,1.2249,1.2221,1.2355,1.239,1.2502,1.2533,1.2561,1.2582,1.2551,1.269,1.2703,1.2715,1.276,1.2777,1.2569,1.2569,1.2568,1.2568,0,1.2023,1.209,1.215,1.2212,1.2254,1.2332,1.2343,1.2385,1.238,1.2395,1.2487,1.2526,1.2593,1.2618,1.2617,1.2729,1.2713,1.2687,1.2639,1.2736,1.2778,1.2795,1.2574,1.2573,1.2572,1.2571,0,0,1.2195,1.2249,1.2272,1.2297,1.2347,1.24,1.2473,1.2535,1.2571,1.2616,1.2679,1.2768,1.2742,1.278,1.2781,1.2831,1.293,1.2798,1.2799,1.2822,1.3055,1.3077,1.3097,1.2919,1.2922,1.2925,1.3051,0,1.2328,1.2457,1.2455,1.2574,1.2635,1.261,1.2673,1.271,1.2724,1.2778,1.2793,1.2857,1.2818,1.284,1.2888,1.2908,1.2978,1.2899,1.2979,1.2981,1.297,1.3119,1.3143,1.3261,1.3068,1.307,1.3072,0,1.2503,1.2549,1.2673,1.2708,1.2734,1.2791,1.2845,1.2896,1.2936,1.2942,1.2979,1.297,1.3043,1.2988,1.3089,1.3035,1.3066,1.308,1.3085,1.3096,1.3036,1.3136,1.3299,1.3318,1.3098,1.3096,1.3094,0,1.2616,1.2709,1.2795,1.2817,1.2861,1.2901,1.2921,1.2956,1.2991,1.3038,1.306,1.3115,1.3146,1.3188,1.3193,1.3153,1.3294,1.3241,1.3302,1.3302,1.3338,1.3337,1.3511,1.3353,1.3353,1.3352,1.3352,0,1.2767,1.2844,1.2845,1.2899,1.2983,1.2978,1.3062,1.3078,1.3108,1.3163,1.3144,1.3196,1.3198,1.3251,1.3254,1.3336,1.335,1.3358,1.3359,1.3362,1.3361,1.3386,1.3379,1.3357,1.3356,1.3355,1.3354,0,1.2911,1.2915,1.3006,1.3035,1.3044,1.3106,1.3131,1.3181,1.3189,1.3259,1.3275,1.3289,1.3349,1.3356,1.3428,1.343,1.3529,1.352,1.3516,1.3516,1.3577,1.3572,1.3777,1.3803,1.3625,1.3627,1.3628,0,1.3009,1.3067,1.31,1.3134,1.3155,1.321,1.3244,1.3239,1.3275,1.3319,1.3363,1.3421,1.3467,1.3565,1.3582,1.3635,1.3629,1.3696,1.3638,1.3637,1.3631,1.3629,1.3634,1.371,1.3712,1.3713,1.3714,0,1.3182,1.3179,1.3228,1.3275,1.3315,1.3353,1.3389,1.3417,1.3416,1.3457,1.3517,1.3552,1.3621,1.3679,1.3729,1.375,1.3733,1.3731,1.3749,1.3755,1.375,1.3754,1.355,1.3728,1.3727,1.3726,1.3725,1.3725,1.3308,1.3356,1.3385,1.3439,1.3463,1.3495,1.3541,1.3552,1.3601,1.3656,1.3648,1.3714,1.3746,1.3812,1.3835,1.3886,1.3864,1.3889,1.3896,1.3903,1.391,1.3738,1.3895,1.3895,1.3894,1.3894,1.3894,0,1.3481,1.3496,1.3544,1.3592,1.3633,1.3606,1.3642,1.3679,1.3736,1.3765,1.3809,1.3875,1.3928,1.3946,1.3997,1.4034,1.4027,1.4048,1.4048,1.4052,1.3927,1.3907,1.4053,1.4053,1.4053,1.4053,1.4053,1.4053,1.3576,1.3656,1.3655,1.3745,1.376,1.3822,1.3844,1.3873,1.3896,1.3969,1.4012,1.4021,1.4046,1.4097,1.4144,1.4147,1.4168,1.4193,1.4194,1.4077,1.4062,1.4046,1.4028,1.4197,1.4197,1.4315,1.4317,1.4317]}]]